Torna al catalogo

STARLINK-34253

AttivoComunicazioniVLEO
NORAD 64685·PAYLOAD·🇺🇸 United States

Lanciato Jun 28, 2025 da Cape Canaveral Space Force Station

Loading…

Prossimi Passaggi (prossime 24 ore)

TLE

AggiornatoSource: CelesTrak SupGP

Epoca: Sep 15, 2026, 02:24 UTC

1 64685C 25139X   26258.10048611  .00057029  00000+0  16846-2 0  2580
2 64685  53.1592 323.2797 0001212  95.5722 119.4083 15.34368247    15

Traccia STARLINK-34253 in tempo reale con AllMySat

Download on the App Store